Terug naar catalogus

STARLINK-4485

ActiefCommunicatieVLEO
NORAD 53541·PAYLOAD·🇺🇸 United States

Gelanceerd Aug 19, 2022 vanaf Cape Canaveral Space Force Station

Loading…

Volgende Passages (komende 24 uur)

TLE

VersSource: CelesTrak SupGP

Epoch: Sep 14, 2026, 21:56 UTC

1 53541C 22101Q   26257.91437500  .00013567  00000+0  85058-3 0  2572
2 53541  53.1600 304.0303 0001043  91.4413 354.1700 15.08836823    13

Volg STARLINK-4485 in realtime met AllMySat

Download on the App Store